This is the latest recevied weather packets stored in our database for station/object KB1ZFK. If no packets are shown the sender has not sent any weather packets the latest 1 day(s).
| Time | Temp. | Humidity | Pressure | Rain* | Wind** | Luminosity | Snow |
|---|---|---|---|---|---|---|---|
| 1777986137 | 18.33° C | 59% | 1008.6 hPa | 0 mm | 0 m/s | 227 W/m² | - |
| 1777985833 | 17.78° C | 62% | 1008.5 hPa | 0 mm | 0 m/s | 357 W/m² | - |
| 1777985531 | 17.78° C | 61% | 1008.6 hPa | 0 mm | 0 m/s | 269 W/m² | - |
| 1777985227 | 17.22° C | 61% | 1008.7 hPa | 0 mm | 0.45 m/s, 350° | 275 W/m² | - |
| 1777984924 | 17.22° C | 62% | 1008.6 hPa | 0 mm | 0.45 m/s, 334° | 219 W/m² | - |
| 1777984619 | 16.67° C | 62% | 1008.6 hPa | 0 mm | 0.45 m/s, 349° | 311 W/m² | - |
| 1777984316 | 16.67° C | 63% | 1008.5 hPa | 0 mm | 0 m/s | 294 W/m² | - |
| 1777984013 | 16.67° C | 63% | 1008.9 hPa | 0 mm | 0.89 m/s, 341° | 328 W/m² | - |
| 1777983709 | 16.11° C | 64% | 1008.9 hPa | 0 mm | 0.45 m/s, 350° | 295 W/m² | - |
| 1777983401 | 15.56° C | 64% | 1008.9 hPa | 0 mm | 0 m/s | 263 W/m² | - |
| 1777983097 | 14.44° C | 68% | 1008.6 hPa | 0 mm | 0 m/s | 235 W/m² | - |
| 1777982793 | 13.89° C | 69% | 1008.7 hPa | 0 mm | 0.45 m/s, 347° | 157 W/m² | - |
| 1777982490 | 13.89° C | 71% | 1008.7 hPa | 0 mm | 0 m/s | 96 W/m² | - |
| 1777982184 | 13.33° C | 72% | 1008.6 hPa | 0 mm | 0 m/s | 71 W/m² | - |
| 1777981882 | 13.33° C | 72% | 1008.8 hPa | 0 mm | 0.45 m/s, 344° | 57 W/m² | - |
| 1777981578 | 12.78° C | 74% | 1008.8 hPa | 0 mm | 0.45 m/s, 344° | 54 W/m² | - |
| 1777981275 | 12.22° C | 74% | 1008.7 hPa | 0 mm | 0 m/s | 55 W/m² | - |
| 1777980971 | 12.22° C | 75% | 1009 hPa | 0 mm | 0.45 m/s, 346° | 50 W/m² | - |
| 1777980668 | 12.22° C | 74% | 1008.7 hPa | 0 mm | 0.45 m/s, 347° | 49 W/m² | - |
| 1777980364 | 11.67° C | 75% | 1008.7 hPa | 0 mm | 0.45 m/s, 16° | 46 W/m² | - |
| 1777980062 | 11.67° C | 75% | 1008.7 hPa | 0 mm | 0.45 m/s, 353° | 46 W/m² | - |
| 1777979756 | 11.67° C | 75% | 1008.5 hPa | 0 mm | 0 m/s | 40 W/m² | - |
| 1777979452 | 11.67° C | 77% | 1008.3 hPa | 0 mm | 0 m/s | 45 W/m² | - |
| 1777979149 | 11.11° C | 77% | 1008.5 hPa | 0 mm | 0 m/s | 51 W/m² | - |
| 1777978846 | 11.11° C | 78% | 1008.5 hPa | 0 mm | 0 m/s | 34 W/m² | - |
* Rain latest hour (hover to see other rain measurements)
** Current wind speed in m/s (hover to see current wind gust speed)